This demonstration page uses our WeatherBlox Daily Observations layout. Learn more.

Left ArrowRight Arrow

39.08367, -84.50855

Hourly Observations for April 9, 2022

Temp ( °F °C ) Dew Point ( °F °C ) Humidity (%) Winds ( mph kmh ) Pressure ( in mb ) Visibility ( mi km ) Precip ( " mm )
12:53 am 00:53 Cloudy 40 4.4 34 1.1 79 79 SW 10 17 29.79 1009 10 16 0.00 0.00
1:53 am 01:53 Cloudy 39 3.9 35 1.7 86 86 WSW 13 20 29.79 1009 10 16 0.00 0.00
2:53 am 02:53 Cloudy 39 3.9 34 1.1 82 82 SW 9 15 29.78 1009 10 16 0.00 0.00
3:53 am 03:53 Cloudy 39 3.9 34 1.1 82 82 WSW 12 19 29.78 1009 10 16 0.00 0.00
4:53 am 04:53 Mostly Cloudy 38 3.3 34 1.1 86 86 WSW 12 19 29.78 1009 10 16 0.00 0.00
5:04 am 05:04 Cloudy 38 3.3 34 1.1 86 86 WSW 15 24 29.80 1009 10 16 0.00 0.00
5:12 am 05:12 Cloudy 38 3.3 34 1.1 86 86 WSW 12 19 29.80 1009 10 16 0.00 0.00
5:53 am 05:53 Cloudy 38 3.3 34 1.1 86 86 WSW 12 19 29.79 1009 10 16 0.00 0.00
6:53 am 06:53 Cloudy with Light Rain 36 2.2 33 0.6 89 89 W 14 22 29.80 1009 8 13 0.01 0.25
7:04 am 07:04 Cloudy with Light Rain 36 2.2 34 1.1 93 93 W 14 22 29.82 1010 10 16 0.00 0.00
7:11 am 07:11 Cloudy with Light Rain 36 2.2 34 1.1 93 93 WSW 12 19 29.82 1010 10 16 0.00 0.00
7:53 am 07:53 Cloudy 37 2.8 34 1.1 89 89 W 6 9 29.82 1010 8 13 0.00 0.00
8:53 am 08:53 Cloudy with Light Rain 37 2.8 35 1.7 93 93 SW 9 15 29.83 1010 8 13 0.01 0.25
9:53 am 09:53 Cloudy with Light Rain 38 3.3 35 1.7 89 89 W 12 19 29.84 1011 8 13 0.01 0.25
10:53 am 10:53 Cloudy 41 5 33 0.6 73 73 W 14 22 29.85 1011 10 16 0.00 0.00
11:53 am 11:53 Cloudy with Light Snow 38 3.3 31 -0.6 76 76 W 14 22 29.86 1011 7 11 0.00 0.00
12:53 pm 12:53 Cloudy with Light Rain 39 3.9 30 -1.1 70 70 WNW 15 24 29.87 1012 8 13 0.00 0.00
1:53 pm 13:53 Cloudy 39 3.9 30 -1.1 70 70 W 12 19 29.89 1012 10 16 0.00 0.00
2:53 pm 14:53 Cloudy 40 4.4 29 -1.7 65 65 W 16 26 29.90 1013 10 16 0.00 0.00
3:53 pm 15:53 Cloudy 41 5 28 -2.2 60 60 W 17 28 29.91 1013 10 16 0.00 0.00
4:53 pm 16:53 Cloudy 43 6.1 28 -2.2 56 56 WNW 8 13 29.91 1013 10 16 0.00 0.00
5:53 pm 17:53 Cloudy 42 5.6 28 -2.2 58 58 WNW 12 19 29.93 1014 10 16 0.00 0.00
6:53 pm 18:53 Cloudy 42 5.6 28 -2.2 58 58 W 10 17 29.94 1014 10 16 0.00 0.00
7:53 pm 19:53 Cloudy 42 5.6 29 -1.7 60 60 W 9 15 29.96 1014 10 16 0.00 0.00
8:53 pm 20:53 Cloudy 42 5.6 30 -1.1 62 62 W 7 11 29.97 1015 10 16 0.00 0.00
9:53 pm 21:53 Cloudy 39 3.9 32 0 76 76 SSW 5 7 29.99 1016 10 16 0.00 0.00
10:53 pm 22:53 Cloudy 40 4.4 32 0 73 73 S 3 6 30.00 1016 10 16 0.00 0.00
11:53 pm 23:53 Cloudy 38 3.3 32 0 79 79 S 5 7 30.01 1016 10 16 0.00 0.00

Powered by AerisWeather